User: anonymous
Location: Caltech
(34.1382°N, 118.1253°W)
Time: 06:08:51
(UTC-07:00)
Language:

Cosmos 1733 Rocket - Orbit

View from above orbital plane
View from above orbital plane
View from above satellite
View from above satellite

Ground track
Ground track

The orbit data is extracted from the following two-line orbital elements,

1 16612U 86018B   14210.61123316  .00000249  00000-0  27178-4 0  9691
2 16612 082.5161 204.6282 0018332 034.6307 104.5050 14.83591634435208
Epoch (UTC): 29 July 2014 14:40:10
Eccentricity: 0.0018332
inclination: 82.5161°
perigee height: 605 km
apogee height: 631 km
right ascension of ascending node: 204.6282°
argument of perigee: 34.6307°
revolutions per day: 14.83591634
mean anomaly at epoch: 104.5050°
orbit number at epoch: 43520

The dashed part of the orbit path shows where the satellite is in the earth's shadow,  

DLR